[[{"header":{"parameterUnit":"m.s-1","parameterCategory":1,"la1":30.2991,"la2":30.254,"lo1":-89.0895,"lo2":-89.0444,"dy":0.0017,"dx":0.0017,"nx":28,"ny":28,"refTime":"2023-11-04T21:00:00:Z","depth":0,"parameterNumber":2,"parameterNumberName":"U-component_of_WINDS"},"data":[0,0,0,0,0,0,0,0,0,0,0,0,0,0,0,0,0,0,0,0,0,0,0,0,0,0,0,0,0,0,0,0,0,0,0,0,0,0,0,0,0,0,0,0,0,0,0,0,0,0,0,0,0,0,0,0,0,0,0.504,0.504,0,0.5042,0.5042,0.5042,0.4995,0.4994,0.4992,0.4991,0.4997,0.4998,0.4999,0,0,0,0,0,0,0,0,0,0,0,0,0,0.4997,0.4998,0.504,0.504,0.504,0.5042,0.5042,0.5042,0.4995,0.4994,0.4992,0.4991,0.4996,0.4998,0.5,0,0,0,0,0,0,0,0,0,0,0,0,0,0.5009,0.4998,0.5039,0.5016,0.5014,0.5042,0.5042,0.5042,0.4996,0.4994,0.4992,0.499,0.4996,0.4998,0.5,0.5051,0,0,0.5006,0.5007,0,0,0,0,0,0,0,0,0.5008,0.5011,0.502,0.5018,0.5016,0.5016,0.5029,0.5045,0.4996,0.5003,0.4991,0.4989,0.5005,0.5006,0.5011,0.5051,0.5051,0.5006,0.5007,0.5008,0.5009,0,0,0,0,0,0,0,0.5007,0.501,0.5041,0.502,0.5018,0.5007,0.5006,0.5032,0.5015,0.5002,0.4999,0.4999,0.5004,0.5009,0.5011,0.5051,0.5006,0.5008,0.5009,0.501,0.5133,0.5135,0,0,0,0,0,0,0.5009,0.501,0.504,0.5041,0.5007,0.5009,0.5009,0.5018,0.5014,0.5012,0.5001,0.4997,0.5007,0.5008,0.5011,0.507,0.5008,0.501,0.5011,0.5131,0.5133,0.5136,0,0,0,0,0,0,0.5009,0.5013,0.504,0.5024,0.5027,0.5012,0.5023,0.5019,0.5024,0.5013,0.501,0.501,0.5005,0.5008,0.5041,0.507,0.5011,0.5013,0.5129,0.5132,0.5135,0.519,0,0,0,0,0,0,0.5008,0.5013,0.5031,0.5025,0.5028,0.507,0.5024,0.502,0.5028,0.5023,0.5021,0.5019,0.5004,0.5038,0.5043,0.5072,0.5014,0.5126,0.513,0.5134,0.5185,0.5194,0.5202,0,0,0,0,0,0.5006,0.5047,0.5032,0.5036,0.5051,0.5072,0.5073,0.5055,0.503,0.5049,0.5042,0.5019,0.5066,0.5042,0.5047,0.5077,0.5124,0.5129,0.5133,0.5182,0.5193,0.5202,0,0,0,0,0,0,0.5059,0.5046,0.5029,0.507,0.5072,0.5064,0.5087,0.5067,0.5077,0.5072,0.5049,0.5049,0.5086,0.5084,0.5058,0.5126,0.5091,0.5096,0.5126,0.5136,0.5144,0.5145,0.5016,0,0,0,0,0,0.5075,0.5092,0.508,0.5117,0.5118,0.5103,0.5111,0.5096,0.5098,0.5099,0.5095,0.5098,0.5114,0.5124,0.5138,0.5184,0.5184,0.5207,0.5216,0.5223,0.5228,0.5253,0.5264,0.5151,0.5151,0.5151,0,0,0.5108,0.5103,0.5116,0.5127,0.5127,0.5146,0.5104,0.5126,0.514,0.5103,0.5134,0.513,0.5133,0.5173,0.519,0.5172,0.5259,0.5228,0.5234,0.5236,0.5259,0.527,0.5279,0.5154,0.5154,0.5153,0,0,0.518,0.5177,0.5208,0.5208,0.5208,0.5197,0.5205,0.5199,0.5195,0.5225,0.5198,0.5215,0.5242,0.5245,0.525,0.5322,0.5301,0.5327,0.5371,0.5396,0.5405,0.5412,0.5439,0.5449,0.5332,0.5332,0.5332,0,0.5222,0.5249,0.5226,0.525,0.5256,0.5221,0.5252,0.5254,0.526,0.5265,0.5245,0.5278,0.5277,0.5317,0.5335,0.5339,0.5348,0.5328,0.5405,0.5413,0.5419,0.5445,0.5454,0.5336,0.5335,0.5335,0.5335,0,0.5301,0.532,0.5344,0.5349,0.5358,0.5385,0.5367,0.5379,0.5363,0.5355,0.5386,0.5384,0.5396,0.5404,0.539,0.5443,0.5432,0.5409,0.5373,0.5434,0.5457,0.5466,0.534,0.5339,0.5338,0.5337,0,0,0.5407,0.5398,0.5407,0.5409,0.5406,0.5421,0.5447,0.5458,0.5469,0.5473,0.5495,0.5518,0.5496,0.5502,0.5487,0.5509,0.5567,0.5483,0.5482,0.5499,0.5626,0.5645,0.5656,0.5552,0.5554,0.5555,0.5626,0,0.5477,0.552,0.55,0.5545,0.5563,0.553,0.5553,0.5554,0.5547,0.5561,0.5553,0.557,0.554,0.5543,0.5562,0.5556,0.5592,0.555,0.5574,0.5575,0.5575,0.5668,0.5688,0.5755,0.5635,0.5637,0.5638,0,0.5564,0.5572,0.5619,0.5613,0.5619,0.564,0.5649,0.5663,0.5663,0.5656,0.5663,0.5643,0.5668,0.5632,0.5668,0.564,0.5648,0.5646,0.5648,0.5651,0.5611,0.5674,0.5776,0.5787,0.5652,0.565,0.5649,0,0.5638,0.5659,0.569,0.5693,0.5686,0.5702,0.57,0.5699,0.5707,0.5714,0.5719,0.5731,0.5737,0.5746,0.573,0.5705,0.5769,0.5731,0.5765,0.5765,0.5781,0.578,0.5887,0.5784,0.5784,0.5784,0.5784,0,0.5719,0.575,0.5723,0.5743,0.5776,0.5753,0.5787,0.5781,0.578,0.5799,0.5771,0.5789,0.5766,0.5782,0.5769,0.5801,0.5804,0.58,0.5797,0.5803,0.5804,0.581,0.5805,0.5787,0.5786,0.5785,0.5785,0,0.5808,0.5791,0.5823,0.5814,0.5812,0.5837,0.583,0.5848,0.5837,0.5861,0.5865,0.585,0.5867,0.5852,0.5868,0.586,0.5903,0.5892,0.5903,0.59,0.5935,0.5933,0.605,0.6064,0.5952,0.5953,0.5954,0,0.5861,0.5884,0.5877,0.5886,0.5886,0.5902,0.591,0.5888,0.5897,0.5899,0.5917,0.5932,0.5942,0.5972,0.5963,0.5976,0.5966,0.6006,0.5968,0.5974,0.5968,0.5967,0.597,0.6014,0.6015,0.6017,0.6017,0,0.5958,0.5949,0.5961,0.597,0.5979,0.5985,0.599,0.5999,0.5976,0.5989,0.6005,0.6013,0.603,0.6045,0.6055,0.6054,0.6033,0.6029,0.6038,0.6046,0.6051,0.605,0.5925,0.6027,0.6026,0.6025,0.6025,0.6024,0.6032,0.605,0.6048,0.6062,0.6063,0.6067,0.6083,0.6075,0.6088,0.6099,0.6085,0.6106,0.6106,0.6117,0.6118,0.6135,0.6118,0.6131,0.6134,0.6138,0.6143,0.6047,0.6137,0.6136,0.6136,0.6136,0.6136,0,0.6128,0.6125,0.6138,0.6144,0.6155,0.6132,0.6135,0.6147,0.6165,0.6166,0.6177,0.6197,0.6211,0.6203,0.6216,0.623,0.6221,0.6235,0.6234,0.6234,0.6157,0.6149,0.6242,0.6242,0.6242,0.6242,0.6242,0.6242,0.618,0.621,0.62,0.6231,0.6227,0.6247,0.6251,0.6255,0.6256,0.6279,0.629,0.6284,0.6282,0.6294,0.6307,0.6304,0.631,0.6328,0.6322,0.625,0.624,0.623,0.6222,0.6329,0.6329,0.6398,0.6398,0.6399]},{"header":{"parameterUnit":"m.s-1","parameterCategory":1,"la1":30.2991,"la2":30.254,"lo1":-89.0895,"lo2":-89.0444,"dy":0.0017,"dx":0.0017,"nx":28,"ny":28,"refTime":"2023-11-04T21:00:00:Z","depth":0,"parameterNumber":3,"parameterNumberName":"V-component_of_WINDS"},"data":[0,0,0,0,0,0,0,0,0,0,0,0,0,0,0,0,0,0,0,0,0,0,0,0,0,0,0,0,0,0,0,0,0,0,0,0,0,0,0,0,0,0,0,0,0,0,0,0,0,0,0,0,0,0,0,0,0,0,-0.2172,-0.2173,0,-0.2221,-0.2222,-0.2223,-0.2256,-0.2257,-0.2257,-0.2257,-0.231,-0.2311,-0.2312,0,0,0,0,0,0,0,0,0,0,0,0,0,-0.2109,-0.211,-0.2172,-0.2173,-0.2173,-0.2221,-0.2222,-0.2223,-0.2256,-0.2257,-0.2257,-0.2257,-0.2309,-0.2311,-0.2312,0,0,0,0,0,0,0,0,0,0,0,0,0,-0.2145,-0.211,-0.2172,-0.2196,-0.2199,-0.2221,-0.2222,-0.2223,-0.2256,-0.2257,-0.2257,-0.2257,-0.2309,-0.2311,-0.2312,-0.2316,0,0,-0.2318,-0.2318,0,0,0,0,0,0,0,0,-0.2143,-0.2148,-0.2192,-0.2194,-0.2197,-0.2233,-0.2219,-0.2254,-0.2256,-0.2234,-0.2257,-0.2258,-0.2284,-0.2288,-0.2296,-0.2318,-0.232,-0.2318,-0.2319,-0.232,-0.232,0,0,0,0,0,0,0,-0.2141,-0.2146,-0.2192,-0.2192,-0.2196,-0.2205,-0.221,-0.2226,-0.2257,-0.2236,-0.2239,-0.2244,-0.2286,-0.2295,-0.2298,-0.2321,-0.2318,-0.2319,-0.232,-0.2321,-0.2348,-0.2348,0,0,0,0,0,0,-0.2134,-0.2143,-0.219,-0.2193,-0.217,-0.2206,-0.2212,-0.2221,-0.2257,-0.2262,-0.2244,-0.2246,-0.2291,-0.2296,-0.23,-0.2306,-0.232,-0.2321,-0.2322,-0.2349,-0.2348,-0.2348,0,0,0,0,0,0,-0.2133,-0.2138,-0.2188,-0.2169,-0.2176,-0.2206,-0.2217,-0.2222,-0.2231,-0.2262,-0.2268,-0.2247,-0.2292,-0.2297,-0.2311,-0.2308,-0.2322,-0.2324,-0.2349,-0.2349,-0.2348,-0.2318,0,0,0,0,0,0,-0.2131,-0.2137,-0.2138,-0.2169,-0.2177,-0.2198,-0.2216,-0.2223,-0.2234,-0.2236,-0.2267,-0.2272,-0.2293,-0.2309,-0.2313,-0.2311,-0.2325,-0.235,-0.2349,-0.2348,-0.232,-0.2317,-0.2314,0,0,0,0,0,-0.2128,-0.2128,-0.2138,-0.2144,-0.2179,-0.2198,-0.2203,-0.2225,-0.2233,-0.2235,-0.2255,-0.2271,-0.2308,-0.231,-0.2315,-0.2313,-0.235,-0.2349,-0.2348,-0.2321,-0.2317,-0.2314,0,0,0,0,0,0,-0.2098,-0.2133,-0.2144,-0.2154,-0.2172,-0.2203,-0.2206,-0.2221,-0.2238,-0.224,-0.2269,-0.2275,-0.2286,-0.2301,-0.2303,-0.2319,-0.2331,-0.2331,-0.2308,-0.2305,-0.2303,-0.2299,-0.2326,0,0,0,0,0,-0.2092,-0.2104,-0.2134,-0.214,-0.2149,-0.2176,-0.2185,-0.2201,-0.2221,-0.223,-0.2251,-0.2271,-0.2287,-0.2297,-0.2314,-0.2322,-0.233,-0.2324,-0.2321,-0.2319,-0.2319,-0.2325,-0.2322,-0.2346,-0.2346,-0.2346,0,0,-0.208,-0.2101,-0.2107,-0.2134,-0.215,-0.2163,-0.2182,-0.2194,-0.2204,-0.2232,-0.2246,-0.2262,-0.2287,-0.2298,-0.2304,-0.2311,-0.2314,-0.2318,-0.2316,-0.2317,-0.2324,-0.2321,-0.2319,-0.2345,-0.2345,-0.2345,0,0,-0.2065,-0.2082,-0.2089,-0.2104,-0.2129,-0.2147,-0.2148,-0.2177,-0.2189,-0.2203,-0.2224,-0.2237,-0.2264,-0.228,-0.2292,-0.2283,-0.2299,-0.2288,-0.2274,-0.2279,-0.2278,-0.2276,-0.2273,-0.2271,-0.2288,-0.2288,-0.2288,0,-0.2048,-0.2067,-0.209,-0.2101,-0.2112,-0.2138,-0.2145,-0.2159,-0.2188,-0.2196,-0.2203,-0.2237,-0.2256,-0.2271,-0.2269,-0.2278,-0.2281,-0.2284,-0.2276,-0.2274,-0.2273,-0.2271,-0.2269,-0.2286,-0.2286,-0.2286,-0.2287,0,-0.2044,-0.2057,-0.2059,-0.2085,-0.2097,-0.2106,-0.2131,-0.2141,-0.2156,-0.2173,-0.2188,-0.2211,-0.2232,-0.2237,-0.2252,-0.2255,-0.2258,-0.227,-0.2283,-0.2269,-0.2267,-0.2266,-0.2284,-0.2285,-0.2285,-0.2285,0,0,-0.2011,-0.205,-0.205,-0.2062,-0.2091,-0.2102,-0.2112,-0.2132,-0.2139,-0.2159,-0.2168,-0.219,-0.2201,-0.2215,-0.2232,-0.2237,-0.2228,-0.2248,-0.2249,-0.2244,-0.2233,-0.2223,-0.2221,-0.2239,-0.2239,-0.2239,-0.2231,0,-0.2,-0.2019,-0.2041,-0.2052,-0.2064,-0.2088,-0.2098,-0.2116,-0.2133,-0.2146,-0.2165,-0.218,-0.2194,-0.2202,-0.2208,-0.2228,-0.2226,-0.2229,-0.2249,-0.2249,-0.2241,-0.222,-0.2211,-0.2202,-0.223,-0.223,-0.223,0,-0.199,-0.2007,-0.2019,-0.2047,-0.2053,-0.206,-0.208,-0.2093,-0.2115,-0.2126,-0.2141,-0.216,-0.2172,-0.2184,-0.2202,-0.2203,-0.2212,-0.2224,-0.2224,-0.2226,-0.2238,-0.2222,-0.2199,-0.2198,-0.2229,-0.2229,-0.2229,0,-0.1965,-0.1991,-0.2001,-0.2011,-0.2043,-0.2048,-0.2061,-0.2084,-0.2095,-0.2113,-0.212,-0.214,-0.2151,-0.2166,-0.2189,-0.2195,-0.2205,-0.2218,-0.2215,-0.2214,-0.2216,-0.2215,-0.2194,-0.2222,-0.2222,-0.2222,-0.2222,0,-0.195,-0.1957,-0.199,-0.1996,-0.2005,-0.203,-0.2038,-0.2054,-0.2073,-0.2084,-0.2107,-0.2117,-0.2147,-0.216,-0.2179,-0.2191,-0.2196,-0.2206,-0.2211,-0.2204,-0.2202,-0.221,-0.2211,-0.2222,-0.2222,-0.2222,-0.2222,0,-0.1923,-0.1945,-0.1958,-0.1988,-0.1995,-0.2,-0.2025,-0.2033,-0.2051,-0.2064,-0.2069,-0.2097,-0.2114,-0.2139,-0.2164,-0.2176,-0.2185,-0.2193,-0.2177,-0.218,-0.2176,-0.2176,-0.2158,-0.2157,-0.2186,-0.2186,-0.2186,0,-0.1912,-0.1917,-0.1947,-0.1955,-0.1968,-0.1981,-0.1992,-0.2017,-0.2028,-0.2053,-0.2058,-0.2076,-0.2093,-0.2119,-0.2142,-0.2161,-0.217,-0.2162,-0.2173,-0.2166,-0.217,-0.2169,-0.2169,-0.216,-0.2159,-0.2159,-0.2159,0,-0.189,-0.1901,-0.1915,-0.1933,-0.1946,-0.1961,-0.1979,-0.1984,-0.2013,-0.2024,-0.2041,-0.2054,-0.2079,-0.2097,-0.2119,-0.2135,-0.2152,-0.2155,-0.2155,-0.2148,-0.2139,-0.2144,-0.217,-0.2155,-0.2156,-0.2156,-0.2156,-0.2156,-0.1871,-0.1877,-0.1898,-0.1913,-0.1929,-0.1944,-0.1952,-0.1971,-0.1985,-0.2007,-0.2021,-0.2038,-0.206,-0.2092,-0.2106,-0.212,-0.2127,-0.2127,-0.2128,-0.2127,-0.2125,-0.2137,-0.2124,-0.2124,-0.2124,-0.2125,-0.2125,0,-0.185,-0.1865,-0.1879,-0.1901,-0.1913,-0.1927,-0.1947,-0.1956,-0.197,-0.1989,-0.2004,-0.2024,-0.2042,-0.2067,-0.2087,-0.2093,-0.2101,-0.2097,-0.2097,-0.21,-0.2117,-0.2115,-0.209,-0.209,-0.209,-0.209,-0.209,-0.209,-0.184,-0.1851,-0.1864,-0.1883,-0.1898,-0.1914,-0.1924,-0.1938,-0.1953,-0.1974,-0.1989,-0.2004,-0.2026,-0.2047,-0.2065,-0.2072,-0.2078,-0.2071,-0.2081,-0.2096,-0.2099,-0.2102,-0.21,-0.2073,-0.2073,-0.2063,-0.2063,-0.2062]}]]